Hourly Weather Roundup
Issued by NWS Central Illinois

Home | Current Version | Previous Version | Text Only | Print | Product List | Glossary On
Versions: 1 2 3 4 5 6 7 8 9 10 11 12 13 14 15 16 17 18 19 20 21 22 23 24 25 26 27 28 29 30 31 32 33 34 35 36 37 38 39 40 41 42 43 44 45 46 47 48 49 50
000
NZUS43 KILX 220710
HWRILX

Area Weather Roundup
National Weather Service Lincoln IL
200 AM CDT SUN OCT 22 2017

NOTE:  "FAIR" indicates few or no clouds below 12,000 feet, with
       no sigificant weather and/or obstructions to visibility.


CITY           SKY/WX    TMP DP  RH WIND       PRES   REMARKS
Bloomington    MOCLDY    66  57  72 S20G26    29.98F
Champaign      PTCLDY    66  56  70 S15       30.03F
Danville       CLOUDY    66  54  65 S13G22    30.04F
Decatur        MOCLDY    67  58  72 S15       30.00F
Effingham      CLOUDY    65  59  79 SE6       30.06F
Flora          CLOUDY    67  60  77 SE9       30.04F
Jacksonville   PTCLDY    68  60  74 SE17G23   29.90F
Lacon          MOCLDY    68  58  70 S14G22    29.92F
Lawrenceville  CLOUDY    64  56  75 S10       30.08F
Litchfield     CLOUDY    67  60  76 SE17G24   29.97F
$$


CITY           SKY/WX    TMP DP  RH WIND       PRES   REMARKS
Lincoln        CLOUDY    67  59  74 S13G21    29.95F
Macomb         CLOUDY    69  59  72 S15       29.88F
Mattoon        CLOUDY    65  58  78 S9        30.04F
Mt Carmel AP   PTCLDY    65  55  72 SE8       30.07F
Olney-Noble AP CLOUDY    67  60  80 SE6       30.07S
Paris AP       CLOUDY    65  56  72 S12       30.08F
Peoria         CLOUDY    70  60  70 S14       29.92F
Pontiac        PTCLDY    66  58  76 S16G24    29.98F
Rantoul        PTCLDY    66  58  75 S12       30.02F
Robinson       CLOUDY    62  55  77 SE5       30.09F
Springfield    MOCLDY    70  61  73 S15G25    29.93F
Taylorville    CLEAR     66  59  76 S16       29.97F
$$

...REGIONAL REPORTS...


CITY           SKY/WX    TMP DP  RH WIND       PRES   REMARKS
Chicago O`Hare MOCLDY    67  53  61 S17       29.98F
Kankakee       CLOUDY    66  55  65 S12G18    30.03F
Moline         LGT RAIN  69  58  67 S3        29.86F
Mount Sterling CLOUDY    67  60  78 S14G22    29.86F
Mount Vernon   CLOUDY    66  60  81 SE3       30.04F
Pittsfield     CLOUDY    70  62  74 SE10      29.89F
Quincy         LGT RAIN  68  62  81 S15G25    29.85F
Rockford       CLOUDY    67  56  67 S21G28    29.93F
$$


CITY           SKY/WX    TMP DP  RH WIND       PRES   REMARKS
Burlington     LGT RAIN  63  60  90 NW15      29.87S
Cedar Rapids   LGT RAIN  55  53  93 NW15      29.90R
Des Moines     CLOUDY    52  46  80 NW8       29.95R
Kirksville     LGT RAIN  55  55 100 N15G25    29.91R FOG
Ottumwa        LGT RAIN  53  52  96 NW10      29.92R
St Louis       CLOUDY    70  62  76 SE16      29.92F
$$


CITY           SKY/WX    TMP DP  RH WIND       PRES   REMARKS
Terre Haute    PTCLDY    64  52  64 S8        30.09F
Evansville     PTCLDY    64  54  69 SE5       30.09F
Indianapolis   CLOUDY    59  49  69 SE9       30.13S
Lafayette      PTCLDY    60  50  69 CALM      30.08F
Madison        CLOUDY    67  57  70 S17G25    29.87F
Milwaukee      MOCLDY    66  57  72 S10       29.95F
$$






USA.gov is the U.S. government's official web portal to all federal, state and local government web resources and services.